Terminal Aerodrome Forecast
Issued by NWS Memphis, TN

Home | Current Version | Previous Version | Text Only | Print | Product List | Glossary On
Versions: 1 2 3 4 5 6 7 8 9 10 11 12 13
000
FTUS44 KMEG 271100
TAFJBR
TAF
KJBR 271120Z 2712/2812 00000KT P6SM SCT050 SCT250
     FM271500 10005KT P6SM FEW250
     FM280100 00000KT P6SM SKC=

USA.gov is the U.S. government's official web portal to all federal, state and local government web resources and services.